Location: Ferchesar
(52.6477°N, 12.4298°E)
Time: 04:49:50
(UTC+02:00)

Vanguard 3 - Pass Details

Date: 05 March 2021
Orbit: 508 x 3262 km, 33.3° (Epoch: 15 April)

Event Time Altitude Azimuth Distance (km) Brightness Sun altitude
Rises 17:53:11 0° 256° (WSW) 7,109 15.2 -0.3°
Reaches altitude 10° 17:59:00 10° 249° (WSW) 5,860 13.3 -1.2°
Maximum altitude 18:12:42 31° 196° (SSW) 3,465 10.6 -3.2°
Drops below altitude 10° 18:22:01 10° 140° (SE) 3,950 10.3 -4.6°
Sets 18:25:05 0° 130° (SE) 4,579 10.5 -5.1°
